Regional Weather Roundup
Issued by NWS

Home | Current Version | Previous Version | Graphics & Text | Print | Product List | Glossary On
Versions: 1 2 3 4 5 6 7 8 9 10 11 12 13 14 15 16 17 18 19 20 21 22 23 24 25 26 27 28 29 30 31 32 33 34 35 36 37 38 39 40 41 42 43 44 45 46 47 48 49 50
000
ASUS43 KIND 261409
RWRIN

WEATHER ROUNDUP FOR INDIANA
NATIONAL WEATHER SERVICE INDIANAPOLIS IN
1000 AM EDT WED JUL 26 2017

NOTE: "FAIR" INDICATES FEW OR NO CLOUDS BELOW 12,000 FEET WITH NO
SIGNIFICANT WEATHER AND/OR OBSTRUCTIONS TO VISIBILITY.

* - STATION DOES NOT REPORT WEATHER SUCH AS PRECIPITATION OR FOG.

+ - STATION NOT QUALITY CONTROLLED BY THE NATIONAL WEATHER SERVICE.
    USE DATA WITH CAUTION...ESPECIALLY DEWPOINT AND RELATIVE
    HUMIDITY OBSERVATIONS.

INZ001>003-010>013-019-020-261500-
NORTHWEST INDIANA

CITY           SKY/WX    TMP DP  RH WIND       PRES   REMARKS
GARY /AIRPORT/ PTSUNNY   72  61  68 S7        30.11S
KNOX *+        MOSUNNY   70  63  78 S6        30.12F
LA PORTE +     PTSUNNY   69  64  82 S7        30.13F
MICHIGAN CITY+ MOSUNNY   72  63  73 S6        30.11F
MONTICELLO +   PTSUNNY   68  64  85 S6        30.12S
RENSSELAER +   CLOUDY    70  63  78 S6        30.11F
VALPARAISO     PTSUNNY   72  64  76 S9        30.12F

$$

LMZ046-743>745-261500-
SOUTHERN LAKE MICHIGAN

STATION/POSITION TIME  TEMP    WIND        PRES    WAVE
                       AIR SEA DIR/SP/G            HT
                 (UTC) (F)     (DEG/KT/KT) (MB)    (FT)
BURNS HARBOR     1340   72     180/ 10/ 14 1019.6F
MICHIGAN CITY    1340   69     160/ 10/ 12   N/A
5NW MICH CITY    1400   71 74  180/ 10/ 12   N/A     1

$$

INZ004-005-014>016-021>024-261500-
NORTH CENTRAL INDIANA

CITY           SKY/WX    TMP DP  RH WIND       PRES   REMARKS
ELKHART        CLOUDY    70  63  78 SW6       30.13F
GOSHEN         CLOUDY    70  61  73 S7        30.14F
LOGANSPORT +   CLOUDY    70  63  78 S7        30.14S
PERU/GRISSOM   MOSUNNY   71  65  79 S8        30.13S
ROCHESTER +    PTSUNNY   72  64  78 S5        30.15R
SOUTH BEND     CLOUDY    70  63  78 S9        30.13F
WARSAW +       PTSUNNY   68  63  83 S7        30.14F

$$

INZ006>009-017-018-025>027-261500-
NORTHEAST INDIANA

CITY           SKY/WX    TMP DP  RH WIND       PRES   REMARKS
AUBURN +       CLOUDY    70  61  73 S3        30.16F
FORT WAYNE     PTSUNNY   70  62  76 S7        30.16F
HUNTINGTON +   MOSUNNY   69  63  80 S7        30.15F
KENDALLVILLE + CLOUDY    69  62  79 S6        30.16F

$$

INZ028-029-035-036-043>045-051>053-261500-
WEST CENTRAL INDIANA

CITY           SKY/WX    TMP DP  RH WIND       PRES   REMARKS
GREENCASTLE +  SUNNY     70  64  83 SE3       30.14S
LAFAYETTE      MOSUNNY   71  65  81 CALM      30.11F
TERRE HAUTE    MOSUNNY   75  65  70 SE7       30.11F

$$

INZ030>032-037>040-046>048-054>057-064-065-261500-
CENTRAL INDIANA

CITY           SKY/WX    TMP DP  RH WIND       PRES   REMARKS
CP ATTERBURY + SUNNY     72  64  78 SE5       30.14F
COLUMBUS       MOSUNNY  N/A N/A N/A E5        30.14F
FRANKFORT +    MOSUNNY   74  67  78 S5        30.14F
GREENWOOD *+   SUNNY    N/A N/A N/A SE6       30.15F
INDIANAPOLIS   MOSUNNY   72  63  73 SE5       30.13F
-EAGLE CREEK   SUNNY     73  62  68 VRB5      30.13F
KOKOMO +       MOSUNNY   70  64  81 S9        30.16S
MT COMFORT *+  SUNNY     70  63  78 SE5       30.16F
SHELBYVILLE    SUNNY     73  63  70 SE6       30.14F
ZIONSVILLE +   MOSUNNY   70  63  79 SE8       30.14F

$$

INZ033-034-041-042-049-050-058-059-261500-
EAST CENTRAL INDIANA

CITY           SKY/WX    TMP DP  RH WIND       PRES   REMARKS
MUNCIE         SUNNY     73  62  68 S6        30.16F
RICHMOND +     SUNNY     66  61  82 CALM      30.18F HAZE

$$

INZ060-061-067>069-081>083-085>088-261500-
SOUTHWEST INDIANA

CITY           SKY/WX    TMP DP  RH WIND       PRES   REMARKS
EVANSVILLE     MOSUNNY   73  69  87 SE6       30.09F
HUNTINGBURG *+ SUNNY     77  69  76 SE9       30.10F

$$

INZ062-063-066-070>080-084-089>092-261500-
SOUTH CENTRAL AND SOUTHEAST INDIANA

CITY           SKY/WX    TMP DP  RH WIND       PRES   REMARKS
BEDFORD +      MOSUNNY   72  63  73 SE5       30.12F
BLOOMINGTON    SUNNY     74  64  71 SE6       30.13F
MADISON *+     SUNNY     72  63  73 E5        30.18R
NORTH VERNON + SUNNY     70  63  78 E3        30.16
SEYMOUR +      SUNNY     73  64  73 SE3       30.14S

$$





USA.gov is the U.S. government's official web portal to all federal, state and local government web resources and services.